This demonstration page uses our WeatherBlox Daily Observations layout. Learn more.

Left ArrowRight Arrow

44.8408, -93.29828

Hourly Observations for July 25, 2022

Temp ( °F °C ) Dew Point ( °F °C ) Humidity (%) Winds ( mph kmh ) Pressure ( in mb ) Visibility ( mi km ) Precip ( " mm )
12:53 am 00:53 Clear 64 17.8 52 11.1 65 65 NW 6 9 30.07 1018 10 16 0.00 0.00
1:53 am 01:53 Clear 63 17.2 52 11.1 68 68 NNW 5 7 30.05 1018 10 16 0.00 0.00
2:53 am 02:53 Clear 62 16.7 51 10.6 67 67 N 3 6 30.06 1018 10 16 0.00 0.00
3:53 am 03:53 Clear 61 16.1 52 11.1 72 72 N 5 7 30.05 1018 10 16 0.00 0.00
4:53 am 04:53 Clear 60 15.6 51 10.6 72 72 Calm 30.06 1018 10 16 0.00 0.00
5:53 am 05:53 Mostly Sunny 60 15.6 51 10.6 72 72 Calm 30.07 1018 10 16 0.00 0.00
6:53 am 06:53 Partly Cloudy 62 16.7 53 11.7 73 73 Calm 30.09 1019 10 16 0.00 0.00
7:53 am 07:53 Mostly Cloudy 66 18.9 50 10 56 56 Calm 30.09 1019 10 16 0.00 0.00
8:53 am 08:53 Mostly Cloudy 68 20 47 8.3 47 47 VRB 3 6 30.11 1020 10 16 0.00 0.00
9:53 am 09:53 Mostly Cloudy 70 21.1 45 7.2 41 41 SE 5 7 30.11 1020 10 16 0.00 0.00
10:53 am 10:53 Mostly Cloudy 70 21.1 46 7.8 42 42 Calm 30.11 1020 10 16 0.00 0.00
11:53 am 11:53 Mostly Cloudy 73 22.8 47 8.3 40 40 VRB 5 7 30.11 1020 10 16 0.00 0.00
12:53 pm 12:53 Partly Cloudy 76 24.4 46 7.8 35 35 SW 8 13 30.09 1019 10 16 0.00 0.00
1:53 pm 13:53 Mostly Cloudy 76 24.4 47 8.3 36 36 W 12 19 30.07 1018 10 16 0.00 0.00
2:53 pm 14:53 Mostly Cloudy 77 25 46 7.8 33 33 SW 9 15 30.05 1018 10 16 0.00 0.00
3:53 pm 15:53 Mostly Cloudy 77 25 49 9.4 37 37 WNW 7 11 30.04 1017 10 16 0.00 0.00
4:53 pm 16:53 Mostly Cloudy 77 25 50 10 39 39 W 14 22 30.03 1017 10 16 0.00 0.00
5:53 pm 17:53 Mostly Cloudy 76 24.4 51 10.6 42 42 W 13 20 30.02 1017 10 16 0.00 0.00
6:53 pm 18:53 Mostly Cloudy 76 24.4 53 11.7 45 45 W 10 17 30.01 1016 10 16 0.00 0.00
7:53 pm 19:53 Mostly Cloudy 74 23.3 54 12.2 50 50 W 8 13 30.00 1016 10 16 0.00 0.00
8:53 pm 20:53 Mostly Cloudy 73 22.8 56 13.3 55 55 W 7 11 29.99 1016 10 16 0.00 0.00
9:53 pm 21:53 Mostly Cloudy 73 22.8 57 13.9 57 57 SW 6 9 30.00 1016 10 16 0.00 0.00
10:53 pm 22:53 Mostly Cloudy 71 21.7 59 15 66 66 SW 6 9 30.00 1016 10 16 0.00 0.00
11:53 pm 23:53 Mostly Clear 70 21.1 60 15.6 71 71 SSW 5 7 29.98 1015 10 16 0.00 0.00

Powered by AerisWeather